www.pogodaiklimat.ru

Погода и климат >> Архив погоды >> Узбекистан >> Юбилейная


ПОГОДА в Юбилейной

  • Прогноз погоды в Юбилейной
  • Монитор погоды в Юбилейной

АРХИВ ПОГОДЫ в Юбилейной

Время (UTC), дата Ветер
(напр.,м/с)
 
Видим.   Явления Облачность Т
(С)
Тd
(С)
f
(%)
Тe
(С)
Тes
(С)
Комфортность P
(гПа)
Po
(гПа)
Тmin
(С)
Tmax
(С)
R
(мм)
R24
(мм)
S
(см)
15 18.08 С 1 н/о 5/1 600 м
[Cb calv Ac cuf]
+23.2 +18.4 74 +29 +29 душно 1012.4 967.6 +31.4
18 18.08 Ю 1 н/о 3/0
[Ac trans]
+18.5 +13.0 70 +20 +20 1014.0 968.2 +31.4
21 18.08 СВ 1 н/о ясно +16.9 +12.5 75 +18 +18 1013.7 967.8
00 19.08 штиль 0 н/о ясно +13.8 +11.9 88 +13 +13 1014.9 968.3
03 19.08 СВ 1 10 км ясно +19.8 +12.5 63 +23 +28 комфорт 1014.7 969.2
06 19.08 В 1 10 км ясно +27.6 +16.7 51 +31 +49 душно 1012.8 968.5 +12.5
09 19.08 С 1 10 км 3/3 600 м
[Cb calv]
+31.4 +15.1 37 +34 +45 душно 1010.8 967.0
12 19.08 СВ 1 10 км 3/3 600 м
[Cb calv Ac trans]
+31.9 +13.8 33 +33 +36 жарко 1009.9 966.3
15 19.08 СВ 4 н/о 8/8 600 м
[Cb cap Ac trans]
+26.6 +17.6 58 +31 +31 душно 1012.5 968.1 +32.3
18 19.08 СВ 2 н/о 9/8 600 м
[Cb cap Ac trans]
+27.1 +8.9 32 +27 +27 жарко 1013.2 968.6 +32.3
21 19.08 С 2 н/о {гроза} 4/0
[Ac trans]
+19.2 +15.7 80 +21 +21 комфорт 1013.5 967.9
00 20.08 Ю 2 н/о ясно +16.0 +12.5 80 +16 +16 1014.1 968.0
03 20.08 СВ 1 10 км ясно +19.7 +12.2 62 +22 +28 комфорт 1014.5 968.8
06 20.08 СВ 1 50 км 1/1 600 м
[Cb calv]
+29.3 +11.5 33 +30 +46 жарко 1012.2 968.1 +15.8 2
09 20.08 СВ 1 10 км 1/1 600 м
[Cb calv]
+32.2 +13.3 32 +33 +48 жарко 1008.9 965.4
12 20.08 Ю 1 10 км ясно +33.4 +16.2 36 +36 +40 очень
душно
1008.8 965.7
15 20.08 штиль 0 н/о 3/0
[Ac lent]
+23.4 +20.8 85 +31 +31 очень
душно
1010.7 966.0 +33.6
18 20.08 СВ 1 н/о 3/0
[Ac lent]
+18.7 +16.7 88 +21 +21 комфорт 1012.4 966.8 +33.6
21 20.08 С 1 н/о 3/0
[Ac lent]
+16.6 +15.9 96 +17 +17 1011.7 965.9
00 21.08 штиль 0 н/о ясно +14.9 +14.2 96 +15 +15 1011.9 965.8
03 21.08 штиль 0 10 км ясно +20.6 +14.4 68 +23 +29 комфорт 1011.6 966.2
06 21.08 СВ 1 10 км ясно +28.9 +15.2 43 +31 +49 жарко 1009.6 965.6 +14.2
09 21.08 З 1 10 км ясно +32.5 +12.6 30 +33 +49 жарко 1008.0 964.5
12 21.08 ЮЗ 1 10 км ясно +33.3 +12.4 28 +34 +37 очень
жарко
1006.1 962.8
15 21.08 штиль 0 н/о ясно +23.2 +19.8 81 +30 +30 очень
душно
1007.5 962.9 +33.5
18 21.08 В 1 н/о 3/0
[Ac lent]
+19.2 +17.4 89 +22 +22 комфорт 1008.7 963.3 +33.5
21 21.08 СВ 1 н/о ясно +18.0 +16.4 90 +19 +19 1008.3 962.8
00 22.08 СВ 1 н/о ясно +15.8 +14.8 94 +16 +16 1008.7 962.8
03 22.08 СВ 1 10 км ясно +19.6 +14.7 73 +23 +28 комфорт 1008.2 963.0
06 22.08 С 1 10 км ясно +30.2 +16.7 44 +34 +51 опасность
солнечного
удара
1006.7 962.8 +15.6
09 22.08 СВ 1 10 км 1/1 600 м
[Cb calv]
+33.0 +16.9 38 +36 +51 опасность
солнечного
удара
1005.5 962.2
12 22.08 ЮЗ 1 10 км 3/1 600 м
[Cb calv Ac cuf]
+34.5 +18.3 38 +39 +41 очень
душно
1004.4 961.5
15 22.08 штиль 0 10 км 3/0
[Ac cast]
+25.0 +21.1 79 +32 +32 очень
душно
1006.9 962.6 +34.5
18 22.08 В 1 н/о 3/0
[Ac lent]
+20.7 +18.4 87 +26 +26 душно 1007.5 962.4 +34.5
21 22.08 СВ 1 н/о 3/0
[Ac lent]
+18.7 +17.2 91 +21 +21 комфорт 1007.5 962.1
00 23.08 С 1 н/о 3/0
[Ac lent]
+17.8 +16.9 94 +19 +19 1008.8 963.3
03 23.08 ЮЗ 1 10 км 8/0
[Ac trans]
+20.6 +17.4 82 +25 +28 комфорт 1008.2 963.1
06 23.08 З 1 10 км 6/0
[Ac trans]
+27.5 +16.0 49 +31 +42 душно 1007.1 963.1 +17.0
09 23.08 ЮЗ 1 10 км 3/1 600 м
[Cb calv Ac trans]
+33.0 +16.4 37 +36 +48 очень
душно
1004.6 961.4
12 23.08 З 1 10 км 8/3 600 м
[Cb cap As op]
+30.5 +15.3 40 +33 +34 душно 1004.7 961.2
15 23.08 Ю 1 н/о 9/8 600 м
[Sc Ac trans]
+26.3 +14.0 47 +29 +29 жарко 1005.8 962.5 +34.4
18 23.08 Ю 1 н/о 10/3
[Sc Ac und]
+23.1 +17.3 70 +28 +28 душно 1010.2 965.3 +34.4
21 23.08 штиль 0 н/о 10/0
[Ac und]
+21.3 +16.7 75 +25 +25 комфорт 1011.2 966.2
00 24.08 Ю 1 н/о зарница 8/4 600 м
[Cb cap Ac trans]
+19.7 +16.0 79 +23 +23 комфорт 1012.1 966.7
03 24.08 ЮЗ 1 10 км 4/0
[Ac cast]
+24.0 +17.6 67 +28 +32 душно 1012.8 967.9
06 24.08 СВ 1 10 км 8/0
[Ac cast]
+28.4 +18.6 55 +33 +41 очень
душно
1011.5 967.4 +19.4
09 24.08 ЮЗ 2 10 км 3/3 600 м
[Cb calv]
+31.3 +16.2 40 +34 +44 душно 1008.5 964.8
12 24.08 Ю 1 10 км 3/0
[Ac lent]
+32.5 +15.9 37 +35 +37 душно 1007.6 964.2
15 24.08 штиль 0 н/о ясно +22.9 +19.8 83 +30 +30 очень
душно
1009.7 965.1 +32.5
18 24.08 СВ 1 н/о ясно +19.5 +17.5 88 +23 +23 комфорт 1010.0 964.7 +32.5
21 24.08 С 1 н/о ясно +17.5 +16.4 93 +19 +19 1010.3 964.7
03 25.08 СВ 1 10 км ясно +21.3 +17.3 78 +25 +30 комфорт 1011.2 966.1

 

Местоположение метеостанции Юбилейная (Андижанская область, Узбекистан): широта 40.75 долгота 71.58 высота над уровнем моря 440 м.

В архиве по умолчанию представлена погода в Юбилейной за последнюю неделю. Архивные данные за месяц целиком и за предыдущие месяцы, начиная с января 2011 года, Вы можете получить, выбрав интересующий диапазон дат из раскрывающегося списка и нажав кнопку "Ввод!".


*Определитесь, кто Вы:
робот инопланетянин человек

Внимание! Время в таблицах - всемирное. Для получения местного времени необходимо прибавить поправку, которая равна 5 ч.

Смотрите также архив погоды в соседних городах и на ближайших метеорологических станциях:

Погода в Намангане (Намаганская область, Узбекистан) (26 км)
Погода в Бозе (Андижанская область, Узбекистан) (30 км)
Погода в Папе (Намаганская область, Узбекистан) (41 км)
Погода в Фергане (Ферганская область, Узбекистан) (45 км)
Погода в Куве (Ферганская область, Узбекистан) (48 км)
Погода в Коканде (Ферганская область, Узбекистан) (58 км)
Погода в Андижан (Андижанская область, Узбекистан) (63 км)
Погода в Пача-Ате (Джалал-Абадская область, Киргизия) (93 км)
Погода в Шахимардане (Ферганская область, Узбекистан) (94 км)
Погода в Сарыканде (Андижанская область, Узбекистан) (95 км)

Пояснения к столбцам:

Ветер - указаны скорость ветра в м/с - средняя за 10 мин, порывы в срок и между сроками (в фигурных скобках) и направление, откуда дует ветер: С - северный, СВ - северо-восточный, В - восточный, ЮВ - юго-восточный, Ю - южный, ЮЗ - юго-западный, З - западный, СЗ - северо-западный.
Видимость - горизонтальная дальность видимости в метрах или километрах. При видимости от 1 до 10 км при отсутствии осадков обычно наблюдается дымка, при ухудшении видимости до 1 км и менее - туман. В сухую погоду видимость может ухудшаться дымом, пылью или мглою.
Явления - указаны атмосферные явления, наблюдавшиеся в срок или в последний час перед сроком; фигурными скобками обозначены явления, наблюдавшиеся между сроками (за 1-3 часа до срока); квадратными скобками обозначены град или гололедные отложения с указанием их диаметра в мм.
Облачность - указаны через наклонную черту общая и нижняя облачность в баллах и высота нижней границы облаков в метрах; квадратными скобками обозначены формы облаков: Ci - перистые, Cs - перисто-слоистые, Cc - перисто-кучевые, Ac - высококучевые, As - высокослоистые, Sc - слоисто-кучевые, Ns - слоисто-дождевые, Cu - кучевые, Cb - кучево-дождевые. Подробнее классификацию облаков см. в Атласе облаков (PDF).
T - Температура воздуха - температура, измеренная на высоте 2 м над землей.
Td - Температура точки росы - температура, при понижении до которой содержащийся в воздухе водяной пар достигнет насыщения.
f - Относительная влажность воздуха - влажноcть воздуха, измеренная на высоте 2 м над землей.
Te - Эффективная температура - температура, которую ощущает одетый по сезону человек в тени. Характеристика душности погоды. При расчете учитывается влияние влажности воздуха и скорости ветра на теплоощущения человека.
Tes - Эффективная температура на солнце - температура, которую ощущает человек, с поправкой на солнечный нагрев. Характеристика знойности погоды. Зависит от высоты солнца над горизонтом, облачности и скорости ветра. Ночью, в пасмурную погоду, а также при ветре 12 м/с и более поправка равна нулю.
P - Атмосферное давление - приведенное к уровню моря атмосферное давление.
Po - Атмосферное давление - измеренное на уровне метеостанции атмосферное давление.
Tmin - Минимальная температура - минимум температуры воздуха на высоте 2 м над землей.
Tmax - Максимальная температура - максимум температуры воздуха на высоте 2 м над землей.
R - Количество осадков - Количество выпавших осадков за период времени, мм. При наведении курсора мыши на число - период времени, за который выпало указанное количество осадков.
R24 - Количество осадков - Количество выпавших осадков за 24 часа, мм.
S - Снежный покров - Высота снежного покрова, см. При наведении курсора мыши на число - состояние снежного покрова и степень покрытия местности в баллах.